AFL294 UUEE-VVCR

Flight info

Callsign AFL294
Flight time N/A
Altitude 37000
Route TOGMO3J TOGMO M56 DENUD M161 MILSO M875 AMDAR/N0499F370 M875 TAPIS L509 LAJAK G796 HANGU L509 SULOM A466 ASARI L509 GGC R460 CEA L507 BGO G473 UBL B202 BOMPA/K0920F370 B202 PLK G474 PCA W2 KAMGO KAMGO1A
Aircraft A359/H-SDE2E3GHIJ1J3J4J5LM1ORWXY/LB1D1

Departure

Time 2026-05-01 08:30
Airport Sheremetyevo International Airport (UUEE)

Arrival

Time N/A
Airport Cam Ranh International Airport / Cam Ranh Air Base (VVCR)
Time Latitude Longitude Altitude Speed Heading
2026-05-01 08:06 55.97925 37.41229 645 ft 0 kts 259°
2026-05-01 08:21 55.97926 37.41233 645 ft 2 kts 259°
2026-05-01 08:21 55.97930 37.41278 646 ft 4 kts 254°
2026-05-01 08:21 55.97942 37.41316 651 ft 4 kts 205°
2026-05-01 08:21 55.97961 37.41320 648 ft 2 kts 164°
2026-05-01 08:22 55.97985 37.41308 646 ft 4 kts 164°
2026-05-01 08:22 55.97995 37.41303 646 ft 0 kts 164°
2026-05-01 08:25 55.97984 37.41312 647 ft 6 kts 153°
2026-05-01 08:25 55.97907 37.41374 645 ft 16 kts 163°
2026-05-01 08:26 55.97800 37.41426 649 ft 16 kts 165°
2026-05-01 08:26 55.97698 37.41484 645 ft 14 kts 147°
2026-05-01 08:26 55.97649 37.41610 646 ft 12 kts 124°
2026-05-01 08:26 55.97636 37.41644 647 ft 0 kts 124°
2026-05-01 08:27 55.97633 37.41841 650 ft 33 kts 76°
2026-05-01 08:27 55.97694 37.42239 647 ft 33 kts 75°
2026-05-01 08:28 55.97749 37.42627 647 ft 32 kts 76°
2026-05-01 08:28 55.97803 37.43009 644 ft 31 kts 75°
2026-05-01 08:28 55.97860 37.43377 645 ft 30 kts 74°
2026-05-01 08:28 55.97916 37.43734 645 ft 28 kts 75°
2026-05-01 08:29 55.97923 37.44012 645 ft 17 kts 140°
2026-05-01 08:29 55.97815 37.44071 649 ft 16 kts 187°
2026-05-01 08:29 55.97779 37.44005 651 ft 0 kts 253°
2026-05-01 08:30 55.97731 37.43694 648 ft 65 kts 255°
2026-05-01 08:30 55.97551 37.42471 647 ft 137 kts 256°
2026-05-01 08:30 55.97266 37.40474 824 ft 182 kts 255°
2026-05-01 08:30 55.96932 37.38301 1728 ft 175 kts 255°
2026-05-01 08:31 55.96401 37.36348 2221 ft 183 kts 236°
2026-05-01 08:31 55.95590 37.34423 2434 ft 205 kts 233°
2026-05-01 08:31 55.94696 37.32318 2786 ft 218 kts 234°
2026-05-01 08:31 55.93800 37.30107 3374 ft 221 kts 236°
2026-05-01 08:32 55.92910 37.27847 3982 ft 223 kts 236°
2026-05-01 08:32 55.92018 37.25553 4591 ft 227 kts 237°
2026-05-01 08:32 55.91122 37.23228 5195 ft 229 kts 237°
2026-05-01 08:32 55.90215 37.20868 5805 ft 233 kts 238°
2026-05-01 08:33 55.89306 37.18463 6384 ft 236 kts 240°
2026-05-01 08:33 55.88544 37.15842 6869 ft 245 kts 248°
2026-05-01 08:33 55.87841 37.12960 7128 ft 262 kts 249°
2026-05-01 08:33 55.87113 37.09908 7621 ft 271 kts 249°
2026-05-01 08:34 55.86567 37.06731 8187 ft 274 kts 265°
2026-05-01 08:34 55.86684 37.03380 8841 ft 273 kts 286°
2026-05-01 08:34 55.87197 37.00070 9518 ft 275 kts 290°
2026-05-01 08:34 55.87750 36.96828 10150 ft 279 kts 290°
2026-05-01 08:35 55.88314 36.93490 10746 ft 283 kts 290°
2026-05-01 08:35 55.88876 36.90110 11355 ft 287 kts 290°
2026-05-01 08:35 55.89441 36.86686 11950 ft 290 kts 290°
2026-05-01 08:35 55.90010 36.83213 12546 ft 294 kts 291°
2026-05-01 08:36 55.90585 36.79693 13145 ft 298 kts 291°
2026-05-01 08:36 55.91015 36.76040 13701 ft 308 kts 277°
2026-05-01 08:36 55.90769 36.72185 14254 ft 318 kts 261°
2026-05-01 08:36 55.90236 36.68328 14739 ft 323 kts 259°
2026-05-01 08:37 55.89665 36.64426 15206 ft 327 kts 260°
2026-05-01 08:37 55.89092 36.60476 15710 ft 331 kts 260°
2026-05-01 08:37 55.88518 36.56478 16198 ft 335 kts 260°
2026-05-01 08:37 55.87885 36.52458 16655 ft 342 kts 253°
2026-05-01 08:38 55.86631 36.48813 17070 ft 353 kts 226°
2026-05-01 08:38 55.84587 36.46412 17492 ft 356 kts 198°
2026-05-01 08:38 55.82168 36.45791 17907 ft 351 kts 169°
2026-05-01 08:38 55.79795 36.46613 18398 ft 348 kts 160°
2026-05-01 08:39 55.77424 36.47594 18805 ft 353 kts 162°
2026-05-01 08:39 55.75003 36.48474 19211 ft 357 kts 163°
2026-05-01 08:39 55.72548 36.49268 19656 ft 360 kts 164°
2026-05-01 08:39 55.70067 36.50011 20084 ft 363 kts 164°
2026-05-01 08:40 55.65063 36.51434 20915 ft 370 kts 165°
2026-05-01 08:40 55.62511 36.52142 21396 ft 372 kts 164°
2026-05-01 08:40 55.59944 36.52851 21807 ft 375 kts 164°
2026-05-01 08:41 55.57333 36.53587 22033 ft 385 kts 164°
2026-05-01 08:41 55.54651 36.54336 22205 ft 396 kts 164°
2026-05-01 08:41 55.51901 36.55098 22437 ft 404 kts 164°
2026-05-01 08:41 55.49106 36.55866 22830 ft 408 kts 164°
2026-05-01 08:42 55.46286 36.56639 23243 ft 412 kts 164°
2026-05-01 08:42 55.43443 36.57418 23679 ft 415 kts 164°
2026-05-01 08:42 55.40579 36.58204 24011 ft 419 kts 164°
2026-05-01 08:42 55.37691 36.59000 24364 ft 421 kts 164°
2026-05-01 08:43 55.34789 36.59792 24723 ft 424 kts 164°
2026-05-01 08:43 55.31863 36.60588 25075 ft 426 kts 164°
2026-05-01 08:43 55.28922 36.61388 25420 ft 429 kts 164°
2026-05-01 08:43 55.26018 36.62454 25856 ft 422 kts 155°
2026-05-01 08:44 55.23271 36.64153 26301 ft 418 kts 152°
2026-05-01 08:44 55.20545 36.66007 26615 ft 421 kts 151°